DELTA 1 DEB, 42093

Orbit data source: Space-Track

DELTA 1 DEB, 42093 is space debris in SSO originally from a launch on Sun, 15 Dec 1968 UTC launched from the Air Force Western Test Range (AFWTR). Debris objects in space refer to the collection of defunct objects orbiting the Earth. Examples of debris include non-operational satellites, rocket bodies, and fragments generated from explosions, collisions, or faulty payload assembly.

Loading next visibility...
Identifier
42093, 1968-114V
Orbit
SSO
Country
Flag of USUS
Related business
Manufacturer
Aerojet
Mission
Spacecraft
Bus & Motor
Unknown
Mass
Unknown
Launch date (UTC)
1968-12-15 (58 years ago)
Launch vehicle
Unknown
Launch site
Air Force Western Test Range (AFWTR)
Object type
Payload
Rocket body
Debris
Shape & HBR
Unknown shape, 0.1 m
Radar Cross Section
Small (<0.1 m²)

Expand to show TLE details & history
Last TLE update: 1 week ago

TLE from 1 week ago
0 DELTA 1 DEB
1 42093U 68114V   26163.21927050  .00002451  00000-0  85464-2 0  9993
2 42093 102.4976 328.9071 0129110 184.7548 175.2326 12.95445784 41190
Epoch: 2026-06-12T05:15Z
TLE epoch observation values (Epoch: 2026-06-12T05:15:44.971Z)
Latitude
-0.00001°
Longitude
-10.58213°
Altitude
1,381.147 km
Speed
7.123 km/s
True Right ascension
21h 55m 37s
True Declination
0° 00' 00"
Sunlit
Object was in daylight at epoch
Visualization orbit readout
Latitude
Unknown
Longitude
Unknown
Altitude
Unknown
Speed
Unknown
Apparent Right ascension
Unknown
Apparent Declination
Unknown
Sunlit
N/A
Visualization observer readout
Local Sidereal Time
00:54:42
Azimuth
Unknown
Elevation
Unknown
Doppler factor
Unknown
Orbital elements
Apogee altitude
1,376.362 km
Perigee altitude
1,178.677 km
Semi-major axis
7,655.656 km
Eccentricity
0.01291
Inclination
102.4976°
RAAN
328.9071°
Arg. of periapsis
184.7548°
True anomaly
175.35361°
Mean anomaly
175.2326°
Eccentric anomaly
175.2933°
Mean motion
3.24018 °/min
Orbital period
111.1 mins
BSTAR
0.0085464
Loading maneuver chart data...
Computing Atmospheric mass density...
Loading historical data...
Loading historical data...
Loading historical data...
Loading historical data...
Loading historical data...
Loading historical data...
Loading historical data...

Documentation

Showing up to 5 results
|